[[{"header":{"parameterUnit":"m.s-1","parameterCategory":1,"la1":30.2991,"la2":30.254,"lo1":-89.0895,"lo2":-89.0444,"dy":0.0017,"dx":0.0017,"nx":28,"ny":28,"refTime":"2024-09-03T21:00:00:Z","depth":0,"parameterNumber":2,"parameterNumberName":"U-component_of_WINDS"},"data":[0,0,0,0,0,0,0,0,0,0,0,0,0,0,0,0,0,0,0,0,0,0,0,0,0,0,0,0,0,0,0,0,0,0,0,0,0,0,0,0,0,0,0,0,0,0,0,0,0,0,0,0,0,0,0,0,0,0,-7.6394,-7.6394,0,-7.6412,-7.6412,-7.6412,-7.6178,-7.6171,-7.6165,-7.6159,-7.6179,-7.6185,-7.6192,0,0,0,0,0,0,0,0,0,0,0,0,0,-7.6159,-7.6165,-7.6394,-7.6394,-7.6395,-7.6412,-7.6412,-7.6412,-7.6179,-7.6171,-7.6163,-7.6156,-7.6177,-7.6184,-7.6192,0,0,0,0,0,0,0,0,0,0,0,0,0,-7.6228,-7.6167,-7.6394,-7.628,-7.627,-7.6412,-7.6412,-7.6412,-7.6181,-7.6171,-7.6161,-7.6152,-7.6174,-7.6184,-7.6193,-7.6445,0,0,-7.6223,-7.6227,0,0,0,0,0,0,0,0,-7.6224,-7.6237,-7.6297,-7.6288,-7.6277,-7.6283,-7.6336,-7.6423,-7.6183,-7.6215,-7.6159,-7.6148,-7.6221,-7.6226,-7.6251,-7.6446,-7.6447,-7.6224,-7.623,-7.6234,-7.6237,0,0,0,0,0,0,0,-7.622,-7.6235,-7.6401,-7.6298,-7.6286,-7.6229,-7.6228,-7.6352,-7.6272,-7.6211,-7.6194,-7.6199,-7.6214,-7.6242,-7.625,-7.6447,-7.6223,-7.6232,-7.6238,-7.6242,-7.6849,-7.6859,0,0,0,0,0,0,-7.623,-7.6232,-7.64,-7.6401,-7.6227,-7.6241,-7.624,-7.6291,-7.627,-7.6257,-7.6208,-7.6188,-7.623,-7.6239,-7.6249,-7.6542,-7.6234,-7.6243,-7.6248,-7.6839,-7.6851,-7.6862,0,0,0,0,0,0,-7.6226,-7.6248,-7.64,-7.6312,-7.6327,-7.6255,-7.6314,-7.6296,-7.6324,-7.6267,-7.6251,-7.6251,-7.6223,-7.6236,-7.6398,-7.6539,-7.6247,-7.6256,-7.6827,-7.6843,-7.6857,-7.713,0,0,0,0,0,0,-7.622,-7.6247,-7.6342,-7.6316,-7.6333,-7.6548,-7.6323,-7.6303,-7.6341,-7.6316,-7.6303,-7.6292,-7.6216,-7.6385,-7.6408,-7.6547,-7.6264,-7.6813,-7.6834,-7.6852,-7.7108,-7.7153,-7.7191,0,0,0,0,0,-7.6213,-7.6419,-7.6348,-7.637,-7.645,-7.6557,-7.6566,-7.6475,-7.6353,-7.6448,-7.6411,-7.6292,-7.6521,-7.6403,-7.6427,-7.6572,-7.6804,-7.6828,-7.685,-7.7089,-7.7144,-7.719,0,0,0,0,0,0,-7.6464,-7.6413,-7.6334,-7.6538,-7.6554,-7.6517,-7.6633,-7.6536,-7.6586,-7.6561,-7.6446,-7.6445,-7.6626,-7.6615,-7.6485,-7.6814,-7.6641,-7.667,-7.6815,-7.6866,-7.6907,-7.6905,-7.6272,0,0,0,0,0,-7.6543,-7.6634,-7.6585,-7.677,-7.6781,-7.6707,-7.675,-7.6678,-7.669,-7.6695,-7.667,-7.6687,-7.6761,-7.6813,-7.6879,-7.7106,-7.7099,-7.7217,-7.7259,-7.7293,-7.732,-7.7438,-7.7489,-7.6938,-7.6938,-7.6938,0,0,-7.6707,-7.6691,-7.6755,-7.682,-7.6823,-7.692,-7.6714,-7.6825,-7.6896,-7.6712,-7.6863,-7.6846,-7.6856,-7.7052,-7.7137,-7.7049,-7.7471,-7.7323,-7.7351,-7.7358,-7.7467,-7.7519,-7.7566,-7.6954,-7.6951,-7.6949,0,0,-7.7055,-7.7053,-7.7205,-7.7213,-7.7221,-7.717,-7.7208,-7.7186,-7.7168,-7.7317,-7.7181,-7.7264,-7.7396,-7.7409,-7.7433,-7.7787,-7.7679,-7.7812,-7.8029,-7.8146,-7.8189,-7.8227,-7.8352,-7.8399,-7.7838,-7.7839,-7.784,0,-7.7258,-7.7398,-7.7297,-7.7417,-7.7449,-7.7287,-7.7441,-7.7454,-7.7484,-7.751,-7.741,-7.7572,-7.7568,-7.7763,-7.785,-7.7875,-7.7914,-7.7812,-7.8191,-7.8228,-7.8262,-7.838,-7.8428,-7.7855,-7.7853,-7.7852,-7.785,0,-7.7647,-7.7747,-7.7869,-7.7901,-7.7947,-7.8084,-7.8004,-7.8063,-7.7988,-7.7948,-7.8102,-7.8092,-7.8152,-7.8194,-7.8122,-7.838,-7.8325,-7.8211,-7.8034,-7.8332,-7.8441,-7.8486,-7.7878,-7.7872,-7.7868,-7.7864,0,0,-7.8152,-7.8127,-7.8173,-7.8185,-7.8183,-7.8258,-7.8388,-7.8446,-7.8499,-7.8526,-7.8631,-7.8747,-7.8641,-7.8669,-7.8597,-7.87,-7.898,-7.8572,-7.857,-7.8647,-7.9263,-7.9348,-7.9402,-7.8909,-7.8917,-7.8924,-7.9261,0,-7.849,-7.8709,-7.8622,-7.8848,-7.8939,-7.8787,-7.89,-7.8911,-7.8878,-7.895,-7.8912,-7.8996,-7.8851,-7.8866,-7.8961,-7.8926,-7.9102,-7.89,-7.9006,-7.9011,-7.9006,-7.9459,-7.9549,-7.9868,-7.9304,-7.9311,-7.9316,0,-7.8912,-7.8955,-7.9191,-7.9172,-7.9207,-7.931,-7.9357,-7.9428,-7.9437,-7.9406,-7.9438,-7.9343,-7.9469,-7.9295,-7.9466,-7.9332,-7.937,-7.9359,-7.9369,-7.9374,-7.918,-7.9475,-7.9967,-8.0015,-7.9382,-7.9377,-7.9372,0,-7.9255,-7.9373,-7.9528,-7.9544,-7.9526,-7.9602,-7.9599,-7.9598,-7.964,-7.9681,-7.9706,-7.9763,-7.9794,-7.984,-7.9763,-7.9643,-7.9946,-7.9765,-7.9923,-7.9925,-7.9992,-7.9988,-8.0496,-8.002,-8.002,-8.0019,-8.0018,0,-7.964,-7.979,-7.9682,-7.9778,-7.9942,-7.9841,-8.0006,-7.9985,-7.9987,-8.0076,-7.9949,-8.0036,-7.993,-8.0007,-7.9948,-8.0099,-8.0114,-8.0092,-8.0074,-8.0103,-8.0106,-8.0125,-8.01,-8.0031,-8.0028,-8.0026,-8.0024,0,-8.005,-7.9984,-8.0144,-8.0114,-8.011,-8.0233,-8.0207,-8.0294,-8.0253,-8.0367,-8.0389,-8.0323,-8.0407,-8.0336,-8.0417,-8.0377,-8.0578,-8.0529,-8.0575,-8.056,-8.0722,-8.0707,-8.1258,-8.1325,-8.0808,-8.0813,-8.0818,0,-8.0299,-8.0411,-8.0394,-8.0444,-8.0448,-8.0532,-8.0572,-8.0478,-8.0526,-8.0546,-8.0631,-8.0704,-8.0757,-8.0899,-8.0859,-8.092,-8.0871,-8.106,-8.0879,-8.0904,-8.0872,-8.0866,-8.0876,-8.1096,-8.1103,-8.1108,-8.1112,0,-8.0748,-8.071,-8.0773,-8.0827,-8.088,-8.0917,-8.0945,-8.0994,-8.0897,-8.0958,-8.1041,-8.1083,-8.1166,-8.124,-8.1289,-8.1284,-8.1183,-8.1169,-8.1208,-8.1238,-8.1259,-8.1248,-8.0673,-8.1156,-8.1152,-8.1149,-8.1146,-8.1144,-8.1083,-8.1175,-8.1178,-8.1253,-8.1264,-8.1293,-8.1373,-8.1342,-8.141,-8.147,-8.141,-8.1512,-8.1519,-8.1573,-8.1582,-8.166,-8.1581,-8.1639,-8.1653,-8.1669,-8.1691,-8.1248,-8.1669,-8.1668,-8.1666,-8.1665,-8.1664,0,-8.1524,-8.1518,-8.1589,-8.1631,-8.1691,-8.159,-8.1616,-8.1672,-8.1763,-8.1778,-8.1833,-8.193,-8.2001,-8.1968,-8.203,-8.2099,-8.2054,-8.2119,-8.2111,-8.2112,-8.1759,-8.1718,-8.2154,-8.2154,-8.2154,-8.2154,-8.2154,-8.2153,-8.176,-8.191,-8.1873,-8.2027,-8.2019,-8.2118,-8.2141,-8.2167,-8.2178,-8.2292,-8.235,-8.2328,-8.2323,-8.2384,-8.2445,-8.2433,-8.2462,-8.2543,-8.2515,-8.2185,-8.2137,-8.2091,-8.2051,-8.2551,-8.2551,-8.286,-8.2863,-8.2866]},{"header":{"parameterUnit":"m.s-1","parameterCategory":1,"la1":30.2991,"la2":30.254,"lo1":-89.0895,"lo2":-89.0444,"dy":0.0017,"dx":0.0017,"nx":28,"ny":28,"refTime":"2024-09-03T21:00:00:Z","depth":0,"parameterNumber":3,"parameterNumberName":"V-component_of_WINDS"},"data":[0,0,0,0,0,0,0,0,0,0,0,0,0,0,0,0,0,0,0,0,0,0,0,0,0,0,0,0,0,0,0,0,0,0,0,0,0,0,0,0,0,0,0,0,0,0,0,0,0,0,0,0,0,0,0,0,0,0,-2.0642,-2.0642,0,-2.0642,-2.0642,-2.0642,-2.0629,-2.0629,-2.0628,-2.0628,-2.0628,-2.0628,-2.0629,0,0,0,0,0,0,0,0,0,0,0,0,0,-2.063,-2.063,-2.0642,-2.0642,-2.0642,-2.0642,-2.0642,-2.0642,-2.0629,-2.0629,-2.0628,-2.0628,-2.0628,-2.0628,-2.0629,0,0,0,0,0,0,0,0,0,0,0,0,0,-2.0633,-2.063,-2.0642,-2.0635,-2.0635,-2.0642,-2.0642,-2.0642,-2.0629,-2.0629,-2.0628,-2.0628,-2.0628,-2.0628,-2.0629,-2.0642,0,0,-2.063,-2.0631,0,0,0,0,0,0,0,0,-2.0633,-2.0633,-2.0636,-2.0636,-2.0635,-2.0635,-2.0638,-2.0642,-2.0629,-2.0631,-2.0628,-2.0628,-2.0631,-2.0631,-2.0632,-2.0642,-2.0642,-2.063,-2.0631,-2.0631,-2.0631,0,0,0,0,0,0,0,-2.0633,-2.0633,-2.0642,-2.0636,-2.0636,-2.0632,-2.0632,-2.0639,-2.0634,-2.0631,-2.063,-2.0631,-2.063,-2.0632,-2.0632,-2.0642,-2.063,-2.0631,-2.0631,-2.0631,-2.0662,-2.0663,0,0,0,0,0,0,-2.0633,-2.0633,-2.0642,-2.0642,-2.0633,-2.0633,-2.0633,-2.0636,-2.0634,-2.0633,-2.0631,-2.063,-2.0631,-2.0632,-2.0632,-2.0647,-2.0631,-2.0631,-2.0632,-2.0662,-2.0663,-2.0663,0,0,0,0,0,0,-2.0633,-2.0634,-2.0642,-2.0637,-2.0638,-2.0634,-2.0637,-2.0636,-2.0637,-2.0634,-2.0633,-2.0633,-2.0631,-2.0631,-2.064,-2.0647,-2.0632,-2.0632,-2.0661,-2.0662,-2.0663,-2.0677,0,0,0,0,0,0,-2.0633,-2.0634,-2.0639,-2.0638,-2.0638,-2.065,-2.0638,-2.0636,-2.0638,-2.0637,-2.0636,-2.0635,-2.0631,-2.0639,-2.064,-2.0647,-2.0632,-2.0661,-2.0662,-2.0663,-2.0676,-2.0678,-2.068,0,0,0,0,0,-2.0632,-2.0643,-2.064,-2.0641,-2.0645,-2.065,-2.0651,-2.0645,-2.0639,-2.0644,-2.0641,-2.0635,-2.0646,-2.064,-2.0641,-2.0648,-2.066,-2.0661,-2.0663,-2.0675,-2.0677,-2.068,0,0,0,0,0,0,-2.0646,-2.0643,-2.0639,-2.065,-2.065,-2.0648,-2.0654,-2.0649,-2.0651,-2.065,-2.0643,-2.0643,-2.0652,-2.0651,-2.0644,-2.0661,-2.0652,-2.0653,-2.0661,-2.0663,-2.0665,-2.0665,-2.0633,0,0,0,0,0,-2.065,-2.0655,-2.0652,-2.0662,-2.0662,-2.0658,-2.066,-2.0656,-2.0657,-2.0657,-2.0655,-2.0655,-2.0659,-2.0661,-2.0664,-2.0676,-2.0675,-2.0681,-2.0684,-2.0685,-2.0686,-2.0691,-2.0694,-2.0667,-2.0667,-2.0667,0,0,-2.0659,-2.0658,-2.0661,-2.0665,-2.0664,-2.0669,-2.0658,-2.0664,-2.0667,-2.0658,-2.0665,-2.0664,-2.0664,-2.0673,-2.0678,-2.0673,-2.0694,-2.0687,-2.0688,-2.0688,-2.0693,-2.0695,-2.0698,-2.0668,-2.0668,-2.0668,0,0,-2.0677,-2.0677,-2.0685,-2.0685,-2.0685,-2.0682,-2.0684,-2.0683,-2.0681,-2.0689,-2.0681,-2.0685,-2.0692,-2.0692,-2.0693,-2.0711,-2.0704,-2.0712,-2.0723,-2.0728,-2.073,-2.0732,-2.0737,-2.0739,-2.0713,-2.0713,-2.0713,0,-2.0687,-2.0694,-2.0689,-2.0695,-2.0696,-2.0688,-2.0695,-2.0696,-2.0697,-2.0698,-2.0693,-2.0701,-2.07,-2.0709,-2.0714,-2.0715,-2.0717,-2.0711,-2.073,-2.0732,-2.0733,-2.0738,-2.0741,-2.0714,-2.0714,-2.0714,-2.0714,0,-2.0707,-2.0712,-2.0718,-2.0719,-2.0721,-2.0728,-2.0723,-2.0726,-2.0722,-2.072,-2.0727,-2.0727,-2.0729,-2.0731,-2.0728,-2.074,-2.0737,-2.0731,-2.0722,-2.0737,-2.0741,-2.0743,-2.0715,-2.0715,-2.0715,-2.0715,0,0,-2.0732,-2.0731,-2.0733,-2.0733,-2.0733,-2.0736,-2.0742,-2.0745,-2.0747,-2.0748,-2.0753,-2.0758,-2.0753,-2.0754,-2.075,-2.0755,-2.0768,-2.0749,-2.0749,-2.0751,-2.078,-2.0784,-2.0786,-2.0765,-2.0765,-2.0765,-2.078,0,-2.0748,-2.0759,-2.0754,-2.0765,-2.0769,-2.0761,-2.0767,-2.0767,-2.0765,-2.0768,-2.0766,-2.077,-2.0763,-2.0763,-2.0768,-2.0766,-2.0774,-2.0765,-2.0768,-2.0768,-2.0767,-2.0789,-2.0792,-2.0806,-2.0782,-2.0782,-2.0782,0,-2.0769,-2.077,-2.0781,-2.078,-2.0781,-2.0786,-2.0787,-2.0791,-2.0791,-2.0789,-2.0791,-2.0786,-2.0791,-2.0783,-2.0791,-2.0785,-2.0786,-2.0785,-2.0786,-2.0784,-2.0775,-2.0787,-2.081,-2.0812,-2.0785,-2.0785,-2.0785,0,-2.0784,-2.079,-2.0797,-2.0797,-2.0796,-2.0799,-2.0799,-2.0799,-2.08,-2.0802,-2.0803,-2.0805,-2.0806,-2.0808,-2.0804,-2.0798,-2.0811,-2.0803,-2.0809,-2.0809,-2.0811,-2.0811,-2.0834,-2.0815,-2.0815,-2.0814,-2.0814,0,-2.0802,-2.0809,-2.0803,-2.0808,-2.0815,-2.081,-2.0817,-2.0816,-2.0816,-2.0819,-2.0814,-2.0817,-2.0812,-2.0815,-2.0812,-2.0818,-2.0819,-2.0817,-2.0816,-2.0817,-2.0817,-2.0817,-2.0815,-2.0815,-2.0815,-2.0815,-2.0815,0,-2.082,-2.0817,-2.0824,-2.0822,-2.0822,-2.0827,-2.0826,-2.0829,-2.0827,-2.0832,-2.0833,-2.083,-2.0833,-2.0829,-2.0832,-2.083,-2.0838,-2.0836,-2.0838,-2.0837,-2.0843,-2.0842,-2.0865,-2.0868,-2.0848,-2.0848,-2.0848,0,-2.0831,-2.0836,-2.0835,-2.0837,-2.0837,-2.084,-2.0841,-2.0837,-2.0839,-2.084,-2.0843,-2.0846,-2.0847,-2.0853,-2.0851,-2.0853,-2.085,-2.0858,-2.085,-2.0851,-2.0849,-2.0848,-2.0848,-2.0859,-2.086,-2.086,-2.086,0,-2.085,-2.0848,-2.0851,-2.0853,-2.0855,-2.0856,-2.0857,-2.0859,-2.0854,-2.0857,-2.086,-2.0861,-2.0864,-2.0867,-2.0868,-2.0868,-2.0863,-2.0863,-2.0864,-2.0864,-2.0865,-2.0863,-2.0841,-2.0862,-2.0862,-2.0862,-2.0862,-2.0861,-2.0864,-2.0867,-2.0867,-2.087,-2.087,-2.0871,-2.0874,-2.0873,-2.0875,-2.0877,-2.0875,-2.0878,-2.0878,-2.088,-2.088,-2.0883,-2.0879,-2.0882,-2.0882,-2.0882,-2.0883,-2.0865,-2.0883,-2.0883,-2.0883,-2.0883,-2.0883,0,-2.0881,-2.0881,-2.0884,-2.0885,-2.0887,-2.0883,-2.0884,-2.0886,-2.0889,-2.0889,-2.0891,-2.0895,-2.0897,-2.0896,-2.0898,-2.09,-2.0898,-2.0901,-2.09,-2.0899,-2.0886,-2.0884,-2.0902,-2.0902,-2.0902,-2.0902,-2.0902,-2.0902,-2.0891,-2.0896,-2.0895,-2.09,-2.09,-2.0903,-2.0904,-2.0905,-2.0905,-2.0909,-2.0911,-2.091,-2.0909,-2.0911,-2.0913,-2.0913,-2.0913,-2.0917,-2.0915,-2.0902,-2.09,-2.0899,-2.0897,-2.0917,-2.0917,-2.0928,-2.0928,-2.0928]}]]